Otagawa — JD3046 — position and weather

sailwx.info

Track history (hours):
 
Tides and Currents Weather Stations Pressure Air Temp Water Temp Dewpoint Dewpoint Depression Visibility Wind Speed Wind Dir Waves Ship Positions

Otagawa

Last reported at 2014-Oct-24 00:19 UTC. Time now 2014-Oct-25 22:58 UTC.
Position N 35°01' E 139°44'.

Length 70 m; draft 4.6 m.

Type: Ship. MMSI: 431001328.

Date/timePositionNaut miles runAvg speedWind from/ knotsBaromVisibWave heightAir tempDewpointWater temp
2014-Oct-24 00:19N 35°01' E 139°44'811.1
2014-Oct-23 23:33N 35°09' E 139°46'1111.0
2014-Oct-23 22:33N 35°20' E 139°43'6 5.8
2014-Oct-23 21:33N 35°25' E 139°42'0 0.0
2014-Oct-23 20:32N 35°25' E 139°42'0 0.0
2014-Oct-23 19:32N 35°25' E 139°42'0 0.1
2014-Oct-23 18:32N 35°25' E 139°42'0 0.0
2014-Oct-23 17:32N 35°25' E 139°42'0 0.1
2014-Oct-23 16:23N 35°25' E 139°42'0 0.0
2014-Oct-23 15:29N 35°25' E 139°42'0 0.0
2014-Oct-23 14:32N 35°25' E 139°42'0 0.0
2014-Oct-23 13:32N 35°25' E 139°42'0 0.0
2014-Oct-23 12:32N 35°25' E 139°42'0 0.0
2014-Oct-23 11:32N 35°25' E 139°42'1 1.4
2014-Oct-23 10:33N 35°26' E 139°41'0 0.0
2014-Oct-23 09:33N 35°26' E 139°41'0 0.0
2014-Oct-23 08:33N 35°26' E 139°41'0 0.0
2014-Oct-23 07:33N 35°26' E 139°41'2 2.5
2014-Oct-23 06:33N 35°25' E 139°43'10 9.9
2014-Oct-23 05:33N 35°15' E 139°47'10 8.7
2014-Oct-23 04:24N 35°06' E 139°42'  
2014-Oct-18 10:33N 35°04' E 139°44'1211.5
2014-Oct-18 09:33N 35°16' E 139°46'9 9.4
2014-Oct-18 08:33N 35°25' E 139°45'9 9.1
2014-Oct-18 07:33N 35°34' E 139°49'4 4.0
2014-Oct-18 06:33N 35°37' E 139°46'0 0.0
2014-Oct-18 05:13N 35°37' E 139°46'4 6.4
2014-Oct-18 04:33N 35°34' E 139°49'9 8.6
2014-Oct-18 03:33N 35°25' E 139°48'9 8.9
2014-Oct-18 02:33N 35°17' E 139°46'10 9.6
2014-Oct-18 01:32N 35°07' E 139°46'  
2014-Oct-15 18:24N 35°26' E 139°41'0 0.1
2014-Oct-15 17:33N 35°26' E 139°41'0 0.0
2014-Oct-15 16:33N 35°26' E 139°41'0 0.0
2014-Oct-15 15:33N 35°26' E 139°41'0 0.0
2014-Oct-15 14:33N 35°26' E 139°41'0 0.0
2014-Oct-15 13:33N 35°26' E 139°41'0 0.0
2014-Oct-15 12:33N 35°26' E 139°41'0 0.0
2014-Oct-15 11:33N 35°26' E 139°41'0 0.2
2014-Oct-15 10:33N 35°26' E 139°41'1 0.8
2014-Oct-15 09:33N 35°26' E 139°42'1 0.5
2014-Oct-15 08:33N 35°25' E 139°42'10 9.9
2014-Oct-15 07:31N 35°16' E 139°46'  
Track history (hours):
 
Tides and Currents Weather Stations Pressure Air Temp Water Temp Dewpoint Dewpoint Depression Visibility Wind Speed Wind Dir Waves Ship Positions

Otagawa

Last reported at 2014-Oct-24 00:19 UTC. Time now 2014-Oct-25 22:58 UTC.
Position N 35°01' E 139°44'.

Length 70 m; draft 4.6 m.

Type: Ship. MMSI: 431001328.

Date/timePositionNaut miles runAvg speedWind from/ knotsBaromVisibWave heightAir tempDewpointWater temp
2014-Oct-24 00:19N 35°01' E 139°44'811.1
2014-Oct-23 23:33N 35°09' E 139°46'1111.0
2014-Oct-23 22:33N 35°20' E 139°43'6 5.8
2014-Oct-23 21:33N 35°25' E 139°42'0 0.0
2014-Oct-23 20:32N 35°25' E 139°42'0 0.0
2014-Oct-23 19:32N 35°25' E 139°42'0 0.1
2014-Oct-23 18:32N 35°25' E 139°42'0 0.0
2014-Oct-23 17:32N 35°25' E 139°42'0 0.1
2014-Oct-23 16:23N 35°25' E 139°42'0 0.0
2014-Oct-23 15:29N 35°25' E 139°42'0 0.0
2014-Oct-23 14:32N 35°25' E 139°42'0 0.0
2014-Oct-23 13:32N 35°25' E 139°42'0 0.0
2014-Oct-23 12:32N 35°25' E 139°42'0 0.0
2014-Oct-23 11:32N 35°25' E 139°42'1 1.4
2014-Oct-23 10:33N 35°26' E 139°41'0 0.0
2014-Oct-23 09:33N 35°26' E 139°41'0 0.0
2014-Oct-23 08:33N 35°26' E 139°41'0 0.0
2014-Oct-23 07:33N 35°26' E 139°41'2 2.5
2014-Oct-23 06:33N 35°25' E 139°43'10 9.9
2014-Oct-23 05:33N 35°15' E 139°47'10 8.7
2014-Oct-23 04:24N 35°06' E 139°42'  
2014-Oct-18 10:33N 35°04' E 139°44'1211.5
2014-Oct-18 09:33N 35°16' E 139°46'9 9.4
2014-Oct-18 08:33N 35°25' E 139°45'9 9.1
2014-Oct-18 07:33N 35°34' E 139°49'4 4.0
2014-Oct-18 06:33N 35°37' E 139°46'0 0.0
2014-Oct-18 05:13N 35°37' E 139°46'4 6.4
2014-Oct-18 04:33N 35°34' E 139°49'9 8.6
2014-Oct-18 03:33N 35°25' E 139°48'9 8.9
2014-Oct-18 02:33N 35°17' E 139°46'10 9.6
2014-Oct-18 01:32N 35°07' E 139°46'  
2014-Oct-15 18:24N 35°26' E 139°41'0 0.1
2014-Oct-15 17:33N 35°26' E 139°41'0 0.0
2014-Oct-15 16:33N 35°26' E 139°41'0 0.0
2014-Oct-15 15:33N 35°26' E 139°41'0 0.0
2014-Oct-15 14:33N 35°26' E 139°41'0 0.0
2014-Oct-15 13:33N 35°26' E 139°41'0 0.0
2014-Oct-15 12:33N 35°26' E 139°41'0 0.0
2014-Oct-15 11:33N 35°26' E 139°41'0 0.2
2014-Oct-15 10:33N 35°26' E 139°41'1 0.8
2014-Oct-15 09:33N 35°26' E 139°42'1 0.5
2014-Oct-15 08:33N 35°25' E 139°42'10 9.9
2014-Oct-15 07:31N 35°16' E 139°46'  

Dump ship's entire track history